Powrót do katalogu

STARLINK-33635

AktywnyŁącznośćVLEO
NORAD 63065·PAYLOAD·🇺🇸 United States

Wystrzelony Feb 21, 2025 z Cape Canaveral Space Force Station

Loading…

Następne Przeloty (najbliższe 24 godziny)

TLE

ŚwieżeSource: CelesTrak SupGP

Epoka: Sep 15, 2026, 03:27 UTC

1 63065C 25035P   26258.14423611  .00018077  00000+0  65486-3 0  2582
2 63065  43.0000 157.1147 0001416 272.8561 123.9205 15.27564152    19

Śledź STARLINK-33635 w czasie rzeczywistym z AllMySat

Download on the App Store